Time,TemperatureF,DewpointF,PressureIn,WindDirection,WindDirectionDegrees,WindSpeedMPH,WindSpeedGustMPH,Humidity,HourlyPrecipIn,Conditions,Clouds,dailyrainin,SoftwareType,DateUTC
2013-04-15 00:00:00,38.0,24.9,29.89,North,5,1.8,3.5,59,0.00,CLR,SCT,0.00,WeatherDisplay:10.37,2013-04-15 04:00:00,
2013-04-15 00:05:00,38.1,25.0,29.89,NNE,26,1.0,3.5,59,0.00,CLR,SCT,0.00,WeatherDisplay:10.37,2013-04-15 04:05:00,
2013-04-15 00:10:00,38.0,24.9,29.89,NNE,31,1.5,3.5,59,0.00,CLR,SCT,0.00,WeatherDisplay:10.37,2013-04-15 04:10:00,
2013-04-15 00:15:00,38.0,24.9,29.89,NNE,27,2.3,3.5,59,0.00,CLR,SCT,0.00,WeatherDisplay:10.37,2013-04-15 04:15:00,
2013-04-15 00:20:00,37.9,25.2,29.89,North,5,1.4,2.3,60,0.00,CLR,SCT,0.00,WeatherDisplay:10.37,2013-04-15 04:20:00,
2013-04-15 00:25:00,37.9,24.8,29.90,North,360,1.2,2.3,59,0.00,CLR,SCT,0.00,WeatherDisplay:10.37,2013-04-15 04:25:00,
2013-04-15 00:30:00,37.8,25.1,29.89,NNW,340,1.3,2.3,60,0.00,CLR,SCT,0.00,WeatherDisplay:10.37,2013-04-15 04:30:00,
2013-04-15 00:35:00,37.7,25.1,29.90,NNW,342,0.4,1.1,60,0.00,CLR,SCT,0.00,WeatherDisplay:10.37,2013-04-15 04:35:00,
2013-04-15 00:40:00,37.5,24.9,29.90,NNW,342,0.0,0.0,60,0.00,CLR,SCT,0.00,WeatherDisplay:10.37,2013-04-15 04:40:00,
2013-04-15 00:45:00,37.4,24.8,29.90,NNW,342,0.0,0.0,60,0.00,CLR,SCT,0.00,WeatherDisplay:10.37,2013-04-15 04:45:00,
2013-04-15 00:50:00,37.2,25.0,29.90,NNW,342,0.0,0.0,61,0.00,CLR,SCT,0.00,WeatherDisplay:10.37,2013-04-15 04:50:00,
2013-04-15 00:55:00,37.0,24.8,29.90,NNW,342,0.3,1.1,61,0.00,CLR,SCT,0.00,WeatherDisplay:10.37,2013-04-15 04:55:00,
2013-04-15 01:00:00,36.9,25.1,29.90,North,355,1.1,2.3,62,0.00,CLR,SCT,0.00,WeatherDisplay:10.37,2013-04-15 05:00:00,
2013-04-15 01:05:00,36.8,24.6,29.90,North,355,0.0,0.0,61,0.00,CLR,SCT,0.00,WeatherDisplay:10.37,2013-04-15 05:05:00,
2013-04-15 01:10:00,36.8,25.0,29.91,North,355,0.0,0.0,62,0.00,CLR,SCT,0.00,WeatherDisplay:10.37,2013-04-15 05:10:00,
2013-04-15 01:15:00,36.6,24.8,29.91,North,355,0.0,0.0,62,0.00,CLR,SCT,0.00,WeatherDisplay:10.37,2013-04-15 05:15:00,
2013-04-15 01:20:00,36.4,25.0,29.91,North,355,0.0,0.0,63,0.00,CLR,SCT,0.00,WeatherDisplay:10.37,2013-04-15 05:20:00,
2013-04-15 01:25:00,35.9,24.9,29.91,North,355,0.0,1.1,64,0.00,CLR,SCT,0.00,WeatherDisplay:10.37,2013-04-15 05:25:00,
2013-04-15 01:30:00,35.4,25.5,29.91,NNE,31,0.0,1.1,67,0.00,CLR,SCT,0.00,WeatherDisplay:10.37,2013-04-15 05:30:00,
2013-04-15 01:35:00,35.4,24.4,29.91,NNE,30,0.6,2.3,64,0.00,CLR,SCT,0.00,WeatherDisplay:10.37,2013-04-15 05:35:00,
2013-04-15 01:40:00,35.6,24.6,29.91,NNE,30,0.1,0.0,64,0.00,CLR,SCT,0.00,WeatherDisplay:10.37,2013-04-15 05:40:00,
2013-04-15 01:45:00,35.7,24.3,29.91,NNE,30,0.1,1.0,63,0.00,CLR,SCT,0.00,WeatherDisplay:10.37,2013-04-15 05:45:00,
2013-04-15 01:50:00,36.0,24.6,29.90,NE,46,0.4,1.1,63,0.00,CLR,SCT,0.00,WeatherDisplay:10.37,2013-04-15 05:50:00,
2013-04-15 01:55:00,36.2,24.8,29.90,NE,46,0.0,1.1,63,0.00,CLR,SCT,0.00,WeatherDisplay:10.37,2013-04-15 05:55:00,
2013-04-15 02:00:00,36.3,24.9,29.90,NE,46,0.1,1.0,63,0.00,CLR,SCT,0.00,WeatherDisplay:10.37,2013-04-15 06:00:00,
2013-04-15 02:05:00,36.2,24.8,29.90,North,9,1.3,2.3,63,0.00,CLR,SCT,0.00,WeatherDisplay:10.37,2013-04-15 06:05:00,
2013-04-15 02:10:00,36.2,25.2,29.90,North,9,0.6,2.3,64,0.00,CLR,SCT,0.00,WeatherDisplay:10.37,2013-04-15 06:10:00,
2013-04-15 02:15:00,36.1,24.7,29.90,North,9,0.0,0.0,63,0.00,CLR,SCT,0.00,WeatherDisplay:10.37,2013-04-15 06:15:00,
2013-04-15 02:20:00,36.1,24.7,29.90,North,9,0.0,1.1,63,0.00,CLR,SCT,0.00,WeatherDisplay:10.37,2013-04-15 06:20:00,
2013-04-15 02:25:00,36.1,24.7,29.90,NNE,28,1.2,3.5,63,0.00,CLR,SCT,0.00,WeatherDisplay:10.37,2013-04-15 06:25:00,
2013-04-15 02:30:00,36.2,24.8,29.90,NNW,336,0.9,3.5,63,0.00,CLR,SCT,0.00,WeatherDisplay:10.37,2013-04-15 06:30:00,
2013-04-15 02:35:00,36.3,24.5,29.90,NNW,346,1.4,2.3,62,0.00,CLR,SCT,0.00,WeatherDisplay:10.37,2013-04-15 06:35:00,
2013-04-15 02:40:00,36.5,24.3,29.90,NNW,346,0.9,2.3,61,0.00,CLR,SCT,0.00,WeatherDisplay:10.37,2013-04-15 06:40:00,
2013-04-15 02:45:00,36.6,24.8,29.90,NNW,347,0.7,2.0,62,0.00,CLR,SCT,0.00,WeatherDisplay:10.37,2013-04-15 06:45:00,
2013-04-15 02:50:00,36.5,24.7,29.90,NNW,347,0.1,1.1,62,0.00,CLR,SCT,0.00,WeatherDisplay:10.37,2013-04-15 06:50:00,
2013-04-15 02:55:00,36.4,24.6,29.90,North,355,0.6,1.1,62,0.00,CLR,SCT,0.00,WeatherDisplay:10.37,2013-04-15 06:55:00,
2013-04-15 03:00:00,36.2,24.4,29.90,North,355,0.9,2.3,62,0.00,CLR,SCT,0.00,WeatherDisplay:10.37,2013-04-15 07:00:00,
2013-04-15 03:05:00,36.3,24.1,29.90,North,349,2.7,3.5,61,0.00,CLR,SCT,0.00,WeatherDisplay:10.37,2013-04-15 07:05:00,
2013-04-15 03:41:00,35.9,24.1,29.91,North,349,0.6,1.1,62,0.00,CLR,SCT,0.00,WeatherDisplay:10.37,2013-04-15 07:41:00,
2013-04-15 03:46:00,36.1,23.9,29.91,North,349,0.7,2.3,61,0.00,CLR,SCT,0.00,WeatherDisplay:10.37,2013-04-15 07:46:00,
2013-04-15 03:48:00,36.1,23.9,29.91,NNE,18,1.4,2.3,61,0.00,CLR,SCT,0.00,WeatherDisplay:10.37,2013-04-15 07:48:00,
2013-04-15 03:51:00,36.3,24.1,29.91,NNE,15,0.7,1.1,61,0.00,CLR,SCT,0.00,WeatherDisplay:10.37,2013-04-15 07:51:00,
2013-04-15 03:56:00,36.6,24.4,29.92,NE,34,0.0,1.0,61,0.00,CLR,SCT,0.00,WeatherDisplay:10.37,2013-04-15 07:56:00,
2013-04-15 04:01:00,36.8,23.8,29.92,NE,35,0.8,1.1,59,0.00,CLR,SCT,0.00,WeatherDisplay:10.37,2013-04-15 08:01:00,
2013-04-15 04:06:00,36.9,23.9,29.92,NE,36,0.1,2.0,59,0.00,CLR,SCT,0.00,WeatherDisplay:10.37,2013-04-15 08:06:00,
2013-04-15 04:11:00,37.0,24.0,29.92,NE,36,0.3,1.1,59,0.00,CLR,SCT,0.00,WeatherDisplay:10.37,2013-04-15 08:11:00,
2013-04-15 04:16:00,36.9,23.9,29.92,NE,36,0.0,0.0,59,0.00,CLR,SCT,0.00,WeatherDisplay:10.37,2013-04-15 08:16:00,
2013-04-15 04:21:00,36.7,24.9,29.92,NE,36,0.0,0.0,62,0.00,CLR,SCT,0.00,WeatherDisplay:10.37,2013-04-15 08:21:00,
2013-04-15 04:26:00,36.4,24.6,29.93,NE,36,0.0,0.0,62,0.00,CLR,SCT,0.00,WeatherDisplay:10.37,2013-04-15 08:26:00,
2013-04-15 04:31:00,35.7,25.8,29.93,NE,36,0.0,1.1,67,0.00,CLR,SCT,0.00,WeatherDisplay:10.37,2013-04-15 08:31:00,
2013-04-15 04:36:00,35.4,24.8,29.94,NE,36,0.1,1.1,65,0.00,CLR,SCT,0.00,WeatherDisplay:10.37,2013-04-15 08:36:00,
2013-04-15 04:40:00,35.3,24.3,29.94,NE,36,0.1,1.1,64,0.00,CLR,SCT,0.00,WeatherDisplay:10.37,2013-04-15 08:40:00,
2013-04-15 04:45:00,35.3,24.0,29.95,NE,36,0.0,0.0,63,0.00,CLR,SCT,0.00,WeatherDisplay:10.37,2013-04-15 08:45:00,
2013-04-15 04:50:00,35.2,23.9,29.95,NE,36,0.0,0.0,63,0.00,CLR,SCT,0.00,WeatherDisplay:10.37,2013-04-15 08:50:00,
2013-04-15 04:55:00,35.2,23.9,29.95,NE,36,0.0,0.0,63,0.00,CLR,SCT,0.00,WeatherDisplay:10.37,2013-04-15 08:55:00,
2013-04-15 05:00:00,35.1,23.8,29.95,NE,36,0.0,0.0,63,0.00,CLR,SCT,0.00,WeatherDisplay:10.37,2013-04-15 09:00:00,
2013-04-15 05:05:00,35.0,24.4,29.95,NE,36,0.0,0.0,65,0.00,CLR,SCT,0.00,WeatherDisplay:10.37,2013-04-15 09:05:00,
2013-04-15 05:10:00,34.8,24.2,29.95,NE,36,0.0,0.0,65,0.00,CLR,SCT,0.00,WeatherDisplay:10.37,2013-04-15 09:10:00,
2013-04-15 05:15:00,34.6,24.0,29.95,NE,36,0.0,0.0,65,0.00,CLR,SCT,0.00,WeatherDisplay:10.37,2013-04-15 09:15:00,
2013-04-15 05:20:00,34.4,24.9,29.96,NE,36,0.0,0.0,68,0.00,CLR,SCT,0.00,WeatherDisplay:10.37,2013-04-15 09:20:00,
2013-04-15 05:25:00,34.2,24.7,29.96,NE,36,0.0,0.0,68,0.00,CLR,SCT,0.00,WeatherDisplay:10.37,2013-04-15 09:25:00,
2013-04-15 05:30:00,34.0,24.2,29.97,NE,36,0.0,0.0,67,0.00,CLR,SCT,0.00,WeatherDisplay:10.37,2013-04-15 09:30:00,
2013-04-15 05:35:00,33.8,24.4,29.97,NE,36,0.1,1.1,68,0.00,CLR,SCT,0.00,WeatherDisplay:10.37,2013-04-15 09:35:00,
2013-04-15 05:40:00,33.8,25.7,29.97,NE,36,0.0,0.0,72,0.00,CLR,SCT,0.00,WeatherDisplay:10.37,2013-04-15 09:40:00,
2013-04-15 05:45:00,33.7,25.0,29.97,NE,36,0.0,0.0,70,0.00,CLR,SCT,0.00,WeatherDisplay:10.37,2013-04-15 09:45:00,
2013-04-15 05:50:00,33.8,25.0,29.97,NE,36,0.0,0.0,70,0.00,CLR,SCT,0.00,WeatherDisplay:10.37,2013-04-15 09:50:00,
2013-04-15 05:55:00,33.9,24.8,29.98,NE,36,0.0,0.0,69,0.00,CLR,SCT,0.00,WeatherDisplay:10.37,2013-04-15 09:55:00,
2013-04-15 06:00:00,34.1,24.6,29.98,NE,36,0.0,0.0,68,0.00,CLR,SCT,0.00,WeatherDisplay:10.37,2013-04-15 10:00:00,
2013-04-15 06:05:00,34.4,24.2,29.98,NE,36,0.0,0.0,66,0.00,CLR,SCT,0.00,WeatherDisplay:10.37,2013-04-15 10:05:00,
2013-04-15 06:10:00,34.7,24.5,29.99,NE,36,0.0,0.0,66,0.00,CLR,SCT,0.00,WeatherDisplay:10.37,2013-04-15 10:10:00,
2013-04-15 06:15:00,34.9,25.4,29.99,NE,36,0.0,0.0,68,0.00,CLR,SCT,0.00,WeatherDisplay:10.37,2013-04-15 10:15:00,
2013-04-15 06:20:00,34.9,24.3,29.99,NE,36,0.0,0.0,65,0.00,CLR,SCT,0.00,WeatherDisplay:10.37,2013-04-15 10:20:00,
2013-04-15 06:25:00,35.0,24.4,29.99,NE,36,0.0,0.0,65,0.00,CLR,SCT,0.00,WeatherDisplay:10.37,2013-04-15 10:25:00,
2013-04-15 06:30:00,35.1,24.1,29.99,NE,36,0.0,0.0,64,0.00,CLR,SCT,0.00,WeatherDisplay:10.37,2013-04-15 10:30:00,
2013-04-15 06:35:00,35.2,24.2,30.00,NE,36,0.0,0.0,64,0.00,CLR,SCT,0.00,WeatherDisplay:10.37,2013-04-15 10:35:00,
2013-04-15 06:40:00,35.3,24.7,30.00,NE,36,0.0,0.0,65,0.00,CLR,SCT,0.00,WeatherDisplay:10.37,2013-04-15 10:40:00,
2013-04-15 06:45:00,35.4,24.0,30.00,NE,36,0.0,0.0,63,0.00,CLR,SCT,0.00,WeatherDisplay:10.37,2013-04-15 10:45:00,
2013-04-15 06:50:00,35.6,25.0,30.00,NE,36,0.0,0.0,65,0.00,CLR,SCT,0.00,WeatherDisplay:10.37,2013-04-15 10:50:00,
2013-04-15 06:55:00,35.7,24.7,30.01,NE,36,0.0,0.0,64,0.00,CLR,SCT,0.00,WeatherDisplay:10.37,2013-04-15 10:55:00,
2013-04-15 07:00:00,35.9,24.5,30.01,NE,36,0.0,0.0,63,0.00,CLR,SCT,0.00,WeatherDisplay:10.37,2013-04-15 11:00:00,
2013-04-15 07:05:00,36.0,25.0,30.01,NE,36,0.0,0.0,64,0.00,CLR,SCT,0.00,WeatherDisplay:10.37,2013-04-15 11:05:00,
2013-04-15 07:10:00,36.2,25.6,30.01,NE,36,0.0,0.0,65,0.00,CLR,SCT,0.00,WeatherDisplay:10.37,2013-04-15 11:10:00,
2013-04-15 07:15:00,36.3,25.7,30.00,NE,36,0.0,0.0,65,0.00,CLR,SCT,0.00,WeatherDisplay:10.37,2013-04-15 11:15:00,
2013-04-15 07:20:00,36.6,25.2,30.01,NE,36,0.0,1.1,63,0.00,CLR,SCT,0.00,WeatherDisplay:10.37,2013-04-15 11:20:00,
2013-04-15 07:25:00,36.9,25.1,30.01,NE,36,0.4,1.1,62,0.00,CLR,SCT,0.00,WeatherDisplay:10.37,2013-04-15 11:25:00,
2013-04-15 07:30:00,37.2,26.1,30.01,NE,36,0.0,0.0,64,0.00,CLR,SCT,0.00,WeatherDisplay:10.37,2013-04-15 11:30:00,
2013-04-15 07:35:00,37.5,26.0,30.01,NE,36,0.0,0.0,63,0.00,CLR,SCT,0.00,WeatherDisplay:10.37,2013-04-15 11:35:00,
2013-04-15 07:40:00,37.9,26.0,30.01,ENE,65,0.0,1.1,62,0.00,CLR,SCT,0.00,WeatherDisplay:10.37,2013-04-15 11:40:00,
2013-04-15 07:45:00,38.2,26.3,30.01,ENE,65,0.0,0.0,62,0.00,CLR,SCT,0.00,WeatherDisplay:10.37,2013-04-15 11:45:00,
2013-04-15 07:50:00,38.6,25.9,30.01,ESE,111,0.8,2.3,60,0.00,CLR,SCT,0.00,WeatherDisplay:10.37,2013-04-15 11:50:00,
2013-04-15 07:55:00,38.8,26.1,30.01,East,90,0.1,1.1,60,0.00,CLR,SCT,0.00,WeatherDisplay:10.37,2013-04-15 11:55:00,
2013-04-15 08:00:00,39.1,26.4,30.01,NE,49,0.2,2.3,60,0.00,CLR,SCT,0.00,WeatherDisplay:10.37,2013-04-15 12:00:00,
2013-04-15 08:05:00,39.4,26.2,30.01,ESE,103,1.1,2.3,59,0.00,CLR,SCT,0.00,WeatherDisplay:10.37,2013-04-15 12:05:00,
2013-04-15 08:10:00,39.7,26.9,30.02,ENE,71,1.1,2.3,60,0.00,CLR,SCT,0.00,WeatherDisplay:10.37,2013-04-15 12:10:00,
2013-04-15 08:15:00,39.7,26.9,30.02,NE,38,0.7,2.3,60,0.00,CLR,SCT,0.00,WeatherDisplay:10.37,2013-04-15 12:15:00,
2013-04-15 08:20:00,39.8,26.6,30.02,East,86,1.9,3.5,59,0.00,CLR,SCT,0.00,WeatherDisplay:10.37,2013-04-15 12:20:00,
2013-04-15 08:25:00,39.8,27.0,30.02,East,84,0.3,1.1,60,0.00,CLR,SCT,0.00,WeatherDisplay:10.37,2013-04-15 12:25:00,
2013-04-15 08:30:00,40.0,27.2,30.02,East,84,0.7,1.1,60,0.00,CLR,SCT,0.00,WeatherDisplay:10.37,2013-04-15 12:30:00,
2013-04-15 08:35:00,40.0,29.9,30.03,East,84,0.7,2.3,67,0.00,CLR,SCT,0.00,WeatherDisplay:10.37,2013-04-15 12:35:00,
2013-04-15 08:40:00,39.6,29.5,30.03,East,84,1.0,2.3,67,0.00,CLR,SCT,0.00,WeatherDisplay:10.37,2013-04-15 12:40:00,
2013-04-15 08:45:00,38.9,29.2,30.04,East,84,0.6,1.1,68,0.00,CLR,SCT,0.00,WeatherDisplay:10.37,2013-04-15 12:45:00,
2013-04-15 08:51:00,38.4,28.4,30.04,East,84,0.0,0.0,67,0.00,CLR,SCT,0.00,WeatherDisplay:10.37,2013-04-15 12:51:00,
2013-04-15 08:56:00,38.3,28.7,30.05,East,84,0.0,0.0,68,0.00,CLR,SCT,0.00,WeatherDisplay:10.37,2013-04-15 12:56:00,
2013-04-15 09:01:00,38.3,28.7,30.05,East,94,0.7,2.3,68,0.00,CLR,SCT,0.00,WeatherDisplay:10.37,2013-04-15 13:01:00,
2013-04-15 09:06:00,38.5,28.5,30.05,East,94,0.0,1.1,67,0.00,CLR,SCT,0.00,WeatherDisplay:10.37,2013-04-15 13:06:00,
2013-04-15 09:12:00,38.9,28.1,30.05,East,93,0.0,0.0,65,0.00,CLR,SCT,0.00,WeatherDisplay:10.37,2013-04-15 13:12:00,
2013-04-15 09:17:00,39.4,29.3,30.05,East,92,0.0,1.1,67,0.00,CLR,SCT,0.00,WeatherDisplay:10.37,2013-04-15 13:17:00,
2013-04-15 09:22:00,40.0,29.2,30.05,East,92,0.0,0.0,65,0.00,CLR,SCT,0.00,WeatherDisplay:10.37,2013-04-15 13:22:00,
2013-04-15 09:27:00,40.5,29.7,30.05,East,92,0.0,1.0,65,0.00,CLR,SCT,0.00,WeatherDisplay:10.37,2013-04-15 13:27:00,
2013-04-15 09:32:00,41.1,29.5,30.06,East,92,0.3,1.1,63,0.00,CLR,SCT,0.00,WeatherDisplay:10.37,2013-04-15 13:32:00,
2013-04-15 09:37:00,42.1,28.4,30.05,ESE,113,2.4,4.6,58,0.00,CLR,SCT,0.00,WeatherDisplay:10.37,2013-04-15 13:37:00,
2013-04-15 09:42:00,42.9,28.7,30.05,ESE,119,0.0,1.1,57,0.00,CLR,SCT,0.00,WeatherDisplay:10.37,2013-04-15 13:42:00,
2013-04-15 09:47:00,43.0,28.4,30.06,East,81,0.8,2.3,56,0.00,CLR,SCT,0.00,WeatherDisplay:10.37,2013-04-15 13:47:00,
2013-04-15 09:52:00,43.4,28.7,30.06,ESE,114,0.9,2.3,56,0.00,CLR,SCT,0.00,WeatherDisplay:10.37,2013-04-15 13:52:00,
2013-04-15 09:57:00,43.8,28.2,30.05,SE,138,1.1,4.0,54,0.00,CLR,SCT,0.00,WeatherDisplay:10.37,2013-04-15 13:57:00,
2013-04-15 10:02:00,43.6,28.0,30.05,SE,142,3.9,5.8,54,0.00,CLR,SCT,0.00,WeatherDisplay:10.37,2013-04-15 14:02:00,
2013-04-15 10:07:00,43.7,28.1,30.05,SSE,159,1.2,3.5,54,0.00,CLR,SCT,0.00,WeatherDisplay:10.37,2013-04-15 14:07:00,
2013-04-15 10:12:00,44.1,28.0,30.05,SE,144,1.5,3.5,53,0.00,CLR,SCT,0.00,WeatherDisplay:10.37,2013-04-15 14:12:00,
2013-04-15 10:17:00,44.1,28.0,30.05,ESE,115,1.8,4.0,53,0.00,CLR,SCT,0.00,WeatherDisplay:10.37,2013-04-15 14:17:00,
2013-04-15 10:22:00,44.8,27.3,30.04,SSW,196,1.6,5.8,50,0.00,CLR,SCT,0.00,WeatherDisplay:10.37,2013-04-15 14:22:00,
2013-04-15 10:27:00,45.2,27.2,30.04,SSE,150,1.4,2.3,49,0.00,CLR,SCT,0.00,WeatherDisplay:10.37,2013-04-15 14:27:00,
2013-04-15 10:33:00,45.7,27.6,30.04,South,188,4.7,4.7,49,0.00,CLR,SCT,0.00,WeatherDisplay:10.37,2013-04-15 14:33:00,
2013-04-15 10:38:00,45.7,27.6,30.04,South,176,1.2,3.5,49,0.00,CLR,SCT,0.00,WeatherDisplay:10.37,2013-04-15 14:38:00,
2013-04-15 10:43:00,45.8,28.2,30.04,SSE,147,2.5,3.5,50,0.00,CLR,SCT,0.00,WeatherDisplay:10.37,2013-04-15 14:43:00,
2013-04-15 10:48:00,45.9,27.8,30.04,SE,131,3.2,5.0,49,0.00,CLR,SCT,0.00,WeatherDisplay:10.37,2013-04-15 14:48:00,
2013-04-15 10:53:00,46.5,28.8,30.04,SSE,151,4.8,5.0,50,0.00,CLR,SCT,0.00,WeatherDisplay:10.37,2013-04-15 14:53:00,
2013-04-15 10:58:00,46.3,28.2,30.04,SE,130,1.5,5.8,49,0.00,CLR,SCT,0.00,WeatherDisplay:10.37,2013-04-15 14:58:00,
2013-04-15 11:03:00,47.5,27.7,30.03,ENE,69,1.6,3.5,46,0.00,CLR,SCT,0.00,WeatherDisplay:10.37,2013-04-15 15:03:00,
2013-04-15 11:08:00,47.9,27.6,30.03,South,184,2.0,3.5,45,0.00,CLR,SCT,0.00,WeatherDisplay:10.37,2013-04-15 15:08:00,
2013-04-15 11:13:00,47.4,28.2,30.03,SE,134,1.0,4.6,47,0.00,CLR,SCT,0.00,WeatherDisplay:10.37,2013-04-15 15:13:00,
2013-04-15 11:18:00,47.3,27.0,30.04,SSE,166,1.5,3.5,45,0.00,CLR,SCT,0.00,WeatherDisplay:10.37,2013-04-15 15:18:00,
2013-04-15 11:23:00,47.3,27.5,30.04,ESE,121,3.9,5.0,46,0.00,CLR,SCT,0.00,WeatherDisplay:10.37,2013-04-15 15:23:00,
2013-04-15 11:28:00,47.6,28.3,30.03,SE,143,1.9,4.0,47,0.00,CLR,SCT,0.00,WeatherDisplay:10.37,2013-04-15 15:28:00,
2013-04-15 11:33:00,47.7,28.4,30.03,SSE,157,2.4,3.5,47,0.00,CLR,SCT,0.00,WeatherDisplay:10.37,2013-04-15 15:33:00,
2013-04-15 11:38:00,47.3,28.1,30.03,SE,138,4.4,5.8,47,0.00,CLR,SCT,0.00,WeatherDisplay:10.37,2013-04-15 15:38:00,
2013-04-15 11:43:00,47.7,27.9,30.03,ENE,78,2.6,5.8,46,0.00,CLR,SCT,0.00,WeatherDisplay:10.37,2013-04-15 15:43:00,
2013-04-15 11:48:00,47.9,28.6,30.03,ESE,113,3.5,7.0,47,0.00,CLR,SCT,0.00,WeatherDisplay:10.37,2013-04-15 15:48:00,
2013-04-15 11:53:00,47.4,28.7,30.02,ESE,107,0.6,4.6,48,0.00,CLR,SCT,0.00,WeatherDisplay:10.37,2013-04-15 15:53:00,
2013-04-15 11:58:00,48.3,29.5,30.03,ENE,59,0.8,3.5,48,0.00,CLR,SCT,0.00,WeatherDisplay:10.37,2013-04-15 15:58:00,
2013-04-15 12:03:00,49.2,29.8,30.03,East,101,2.8,4.6,47,0.00,CLR,SCT,0.00,WeatherDisplay:10.37,2013-04-15 16:03:00,
2013-04-15 12:08:00,48.8,28.9,30.03,SSE,165,0.6,2.3,46,0.00,CLR,SCT,0.00,WeatherDisplay:10.37,2013-04-15 16:08:00,
2013-04-15 12:13:00,48.7,28.8,30.03,ESE,111,2.6,4.6,46,0.00,CLR,SCT,0.00,WeatherDisplay:10.37,2013-04-15 16:13:00,
2013-04-15 12:18:00,48.7,29.4,30.03,NE,54,3.6,5.8,47,0.00,CLR,SCT,0.00,WeatherDisplay:10.37,2013-04-15 16:18:00,
2013-04-15 12:23:00,49.3,28.8,30.02,South,181,1.9,4.0,45,0.00,CLR,SCT,0.00,WeatherDisplay:10.37,2013-04-15 16:23:00,
2013-04-15 12:29:00,49.4,29.5,30.02,SSW,193,2.3,4.6,46,0.00,CLR,SCT,0.00,WeatherDisplay:10.37,2013-04-15 16:29:00,
2013-04-15 12:34:00,50.6,30.6,30.01,NE,44,1.2,6.0,46,0.00,CLR,SCT,0.00,WeatherDisplay:10.37,2013-04-15 16:34:00,
2013-04-15 12:39:00,51.1,30.5,30.01,SSE,160,0.5,2.3,45,0.00,CLR,SCT,0.00,WeatherDisplay:10.37,2013-04-15 16:39:00,
2013-04-15 12:44:00,51.4,30.7,30.01,East,82,6.4,7.0,45,0.00,CLR,SCT,0.00,WeatherDisplay:10.37,2013-04-15 16:44:00,
2013-04-15 12:49:00,51.3,29.0,30.01,SE,130,4.2,6.0,42,0.00,CLR,SCT,0.00,WeatherDisplay:10.37,2013-04-15 16:49:00,
2013-04-15 12:54:00,51.0,29.8,30.01,ESE,110,3.1,4.6,44,0.00,CLR,SCT,0.00,WeatherDisplay:10.37,2013-04-15 16:54:00,
2013-04-15 12:59:00,51.2,29.4,30.01,SSE,159,4.0,4.6,43,0.00,CLR,SCT,0.00,WeatherDisplay:10.37,2013-04-15 16:59:00,
2013-04-15 13:04:00,51.8,30.6,30.01,East,94,3.7,5.8,44,0.00,CLR,SCT,0.00,WeatherDisplay:10.37,2013-04-15 17:04:00,
2013-04-15 13:09:00,52.2,30.4,30.01,SW,227,3.1,4.6,43,0.00,CLR,SCT,0.00,WeatherDisplay:10.37,2013-04-15 17:09:00,
2013-04-15 13:14:00,52.1,29.7,30.01,West,265,0.4,2.0,42,0.00,CLR,SCT,0.00,WeatherDisplay:10.37,2013-04-15 17:14:00,
2013-04-15 13:19:00,53.0,30.5,30.01,NNW,331,3.3,5.8,42,0.00,CLR,SCT,0.00,WeatherDisplay:10.37,2013-04-15 17:19:00,
2013-04-15 13:21:00,53.3,31.4,30.01,SW,216,2.6,4.6,43,0.00,CLR,SCT,0.00,WeatherDisplay:10.37,2013-04-15 17:21:00,
2013-04-15 13:25:00,52.6,30.1,30.01,SSE,159,4.4,5.8,42,0.00,CLR,SCT,0.00,WeatherDisplay:10.37,2013-04-15 17:25:00,
2013-04-15 13:30:00,51.9,30.6,30.01,SW,225,1.0,4.0,44,0.00,CLR,SCT,0.00,WeatherDisplay:10.37,2013-04-15 17:30:00,
2013-04-15 13:35:00,52.2,32.0,30.01,SW,214,0.2,1.1,46,0.00,CLR,SCT,0.00,WeatherDisplay:10.37,2013-04-15 17:35:00,
2013-04-15 13:40:00,53.5,31.0,30.00,ESE,104,2.2,4.6,42,0.00,CLR,SCT,0.00,WeatherDisplay:10.37,2013-04-15 17:40:00,
2013-04-15 13:45:00,54.4,31.2,30.01,SE,124,3.3,5.0,41,0.00,CLR,SCT,0.00,WeatherDisplay:10.37,2013-04-15 17:45:00,
2013-04-15 13:50:00,53.8,31.8,30.01,SSW,192,2.8,4.6,43,0.00,CLR,SCT,0.00,WeatherDisplay:10.37,2013-04-15 17:50:00,
2013-04-15 13:55:00,54.7,31.4,30.00,SE,132,4.9,7.0,41,0.00,CLR,SCT,0.00,WeatherDisplay:10.37,2013-04-15 17:55:00,
2013-04-15 14:00:00,53.2,30.7,30.01,SE,138,2.2,4.6,42,0.00,CLR,SCT,0.00,WeatherDisplay:10.37,2013-04-15 18:00:00,
2013-04-15 14:05:00,53.3,31.4,30.00,South,178,4.8,6.9,43,0.00,CLR,SCT,0.00,WeatherDisplay:10.37,2013-04-15 18:05:00,
2013-04-15 14:10:00,53.3,31.4,30.00,SSE,166,3.8,5.8,43,0.00,CLR,SCT,0.00,WeatherDisplay:10.37,2013-04-15 18:10:00,
2013-04-15 14:15:00,52.9,31.0,30.00,ESE,107,2.8,4.0,43,0.00,CLR,SCT,0.00,WeatherDisplay:10.37,2013-04-15 18:15:00,
2013-04-15 14:20:00,54.2,32.7,30.00,SE,131,3.1,3.1,44,0.00,CLR,SCT,0.00,WeatherDisplay:10.37,2013-04-15 18:20:00,
2013-04-15 14:25:00,54.1,31.5,29.99,SSW,205,2.6,3.5,42,0.00,CLR,SCT,0.00,WeatherDisplay:10.37,2013-04-15 18:25:00,
2013-04-15 14:29:00,54.0,32.0,29.99,SSW,195,1.7,4.6,43,0.00,CLR,SCT,0.00,WeatherDisplay:10.37,2013-04-15 18:29:00,
2013-04-15 14:34:00,54.2,31.0,29.99,SSE,150,4.7,6.0,41,0.00,CLR,SCT,0.00,WeatherDisplay:10.37,2013-04-15 18:34:00,
2013-04-15 14:39:00,54.6,31.9,29.99,ENE,65,4.6,5.8,42,0.00,CLR,SCT,0.00,WeatherDisplay:10.37,2013-04-15 18:39:00,
2013-04-15 14:44:00,55.4,31.5,29.99,SSE,168,4.5,6.9,40,0.00,CLR,SCT,0.00,WeatherDisplay:10.37,2013-04-15 18:44:00,
2013-04-15 14:49:00,54.6,31.9,29.99,SW,227,2.7,5.8,42,0.00,CLR,SCT,0.00,WeatherDisplay:10.37,2013-04-15 18:49:00,
2013-04-15 14:54:00,55.3,32.0,29.99,South,182,3.3,4.6,41,0.00,CLR,SCT,0.00,WeatherDisplay:10.37,2013-04-15 18:54:00,
2013-04-15 14:59:00,56.0,31.4,29.99,ESE,121,5.7,7.0,39,0.00,CLR,SCT,0.00,WeatherDisplay:10.37,2013-04-15 18:59:00,
2013-04-15 15:04:00,55.5,32.2,29.98,SE,145,3.2,5.8,41,0.00,CLR,SCT,0.00,WeatherDisplay:10.37,2013-04-15 19:04:00,
2013-04-15 15:09:00,55.6,33.4,29.98,SE,124,0.8,5.8,43,0.00,CLR,SCT,0.00,WeatherDisplay:10.37,2013-04-15 19:09:00,
2013-04-15 15:14:00,56.3,34.1,29.98,WSW,243,0.2,2.0,43,0.00,CLR,SCT,0.00,WeatherDisplay:10.37,2013-04-15 19:14:00,
2013-04-15 15:19:00,56.1,31.5,29.98,SE,138,1.8,4.6,39,0.00,CLR,SCT,0.00,WeatherDisplay:10.37,2013-04-15 19:19:00,
2013-04-15 15:24:00,56.5,31.8,29.98,South,169,2.9,5.8,39,0.00,CLR,SCT,0.00,WeatherDisplay:10.37,2013-04-15 19:24:00,
2013-04-15 15:29:00,56.4,31.7,29.98,SSW,212,3.8,5.8,39,0.00,CLR,SCT,0.00,WeatherDisplay:10.37,2013-04-15 19:29:00,
2013-04-15 15:34:00,56.0,32.0,29.98,SSE,161,1.4,4.6,40,0.00,CLR,SCT,0.00,WeatherDisplay:10.37,2013-04-15 19:34:00,
2013-04-15 15:39:00,55.8,31.8,29.98,South,182,1.9,2.3,40,0.00,CLR,SCT,0.00,WeatherDisplay:10.37,2013-04-15 19:39:00,
2013-04-15 15:45:00,55.9,31.9,29.97,SE,136,5.8,6.9,40,0.00,CLR,SCT,0.00,WeatherDisplay:10.37,2013-04-15 19:45:00,
2013-04-15 15:50:00,55.5,31.5,29.97,SSW,198,5.1,6.9,40,0.00,CLR,SCT,0.00,WeatherDisplay:10.37,2013-04-15 19:50:00,
2013-04-15 15:55:00,55.1,31.8,29.97,SE,135,5.0,5.8,41,0.00,CLR,SCT,0.00,WeatherDisplay:10.37,2013-04-15 19:55:00,
2013-04-15 15:58:00,55.2,31.3,29.97,East,87,2.8,7.0,40,0.00,CLR,SCT,0.00,WeatherDisplay:10.37,2013-04-15 19:58:00,
2013-04-15 16:02:00,55.3,31.4,29.97,South,180,2.5,6.9,40,0.00,CLR,SCT,0.00,WeatherDisplay:10.37,2013-04-15 20:02:00,
2013-04-15 16:03:00,55.5,32.2,29.97,South,182,4.0,6.0,41,0.00,CLR,SCT,0.00,WeatherDisplay:10.37,2013-04-15 20:03:00,
2013-04-15 16:08:00,55.8,32.4,29.97,SSE,155,4.6,5.0,41,0.00,CLR,SCT,0.00,WeatherDisplay:10.37,2013-04-15 20:08:00,
2013-04-15 16:13:00,55.7,31.7,29.97,East,96,2.6,5.8,40,0.00,CLR,SCT,0.00,WeatherDisplay:10.37,2013-04-15 20:13:00,
2013-04-15 16:18:00,55.8,32.4,29.96,South,172,4.3,5.8,41,0.00,CLR,SCT,0.00,WeatherDisplay:10.37,2013-04-15 20:18:00,
2013-04-15 16:23:00,55.4,31.5,29.96,SSE,154,4.6,6.9,40,0.00,CLR,SCT,0.00,WeatherDisplay:10.37,2013-04-15 20:23:00,
2013-04-15 16:28:00,55.3,32.0,29.96,SSE,155,1.8,4.6,41,0.00,CLR,SCT,0.00,WeatherDisplay:10.37,2013-04-15 20:28:00,
2013-04-15 16:33:00,56.0,32.0,29.96,SSW,204,3.3,5.8,40,0.00,CLR,SCT,0.00,WeatherDisplay:10.37,2013-04-15 20:33:00,
2013-04-15 16:38:00,55.4,31.5,29.96,SSE,151,4.9,5.0,40,0.00,CLR,SCT,0.00,WeatherDisplay:10.37,2013-04-15 20:38:00,
2013-04-15 16:43:00,55.9,32.5,29.96,SSE,156,0.8,2.3,41,0.00,CLR,SCT,0.00,WeatherDisplay:10.37,2013-04-15 20:43:00,
2013-04-15 16:48:00,56.1,31.5,29.96,ESE,119,3.3,6.0,39,0.00,CLR,SCT,0.00,WeatherDisplay:10.37,2013-04-15 20:48:00,
2013-04-15 16:53:00,55.8,31.8,29.95,ESE,111,3.0,4.6,40,0.00,CLR,SCT,0.00,WeatherDisplay:10.37,2013-04-15 20:53:00,
2013-04-15 16:58:00,55.9,31.3,29.95,South,191,5.2,7.0,39,0.00,CLR,SCT,0.00,WeatherDisplay:10.37,2013-04-15 20:58:00,
2013-04-15 17:03:00,54.9,31.6,29.96,SE,142,3.9,6.9,41,0.00,CLR,SCT,0.00,WeatherDisplay:10.37,2013-04-15 21:03:00,
2013-04-15 17:08:00,54.7,32.0,29.97,SSE,157,3.8,4.6,42,0.00,CLR,SCT,0.00,WeatherDisplay:10.37,2013-04-15 21:08:00,
2013-04-15 17:13:00,54.7,32.6,29.97,SSE,161,2.4,6.9,43,0.00,CLR,SCT,0.00,WeatherDisplay:10.37,2013-04-15 21:13:00,
2013-04-15 17:18:00,54.7,32.6,29.97,ESE,112,4.3,6.9,43,0.00,CLR,SCT,0.00,WeatherDisplay:10.37,2013-04-15 21:18:00,
2013-04-15 17:23:00,54.5,33.0,29.97,SSE,158,4.1,6.9,44,0.00,CLR,SCT,0.00,WeatherDisplay:10.37,2013-04-15 21:23:00,
2013-04-15 17:28:00,54.6,33.1,29.97,SE,135,4.8,5.8,44,0.00,CLR,SCT,0.00,WeatherDisplay:10.37,2013-04-15 21:28:00,
2013-04-15 17:33:00,54.5,33.6,29.98,SSE,162,4.9,6.9,45,0.00,CLR,SCT,0.00,WeatherDisplay:10.37,2013-04-15 21:33:00,
2013-04-15 17:38:00,54.0,33.7,29.98,SSE,158,5.2,6.9,46,0.00,CLR,SCT,0.00,WeatherDisplay:10.37,2013-04-15 21:38:00,
2013-04-15 17:43:00,53.7,33.4,29.98,SSE,157,4.0,5.8,46,0.00,CLR,SCT,0.00,WeatherDisplay:10.37,2013-04-15 21:43:00,
2013-04-15 17:48:00,53.8,34.0,29.98,SE,144,2.0,5.0,47,0.00,CLR,SCT,0.00,WeatherDisplay:10.37,2013-04-15 21:48:00,
2013-04-15 17:53:00,53.8,34.0,29.99,SSE,165,1.4,2.3,47,0.00,CLR,SCT,0.00,WeatherDisplay:10.37,2013-04-15 21:53:00,
2013-04-15 17:58:00,53.7,33.9,29.99,SSE,168,2.7,5.8,47,0.00,CLR,SCT,0.00,WeatherDisplay:10.37,2013-04-15 21:58:00,
2013-04-15 18:03:00,53.2,33.5,29.99,SSE,161,4.3,5.8,47,0.00,CLR,SCT,0.00,WeatherDisplay:10.37,2013-04-15 22:03:00,
2013-04-15 18:08:00,53.0,33.8,29.99,SE,142,1.4,2.3,48,0.00,CLR,SCT,0.00,WeatherDisplay:10.37,2013-04-15 22:08:00,
2013-04-15 18:13:00,52.7,33.0,29.99,SSE,167,1.5,3.5,47,0.00,CLR,SCT,0.00,WeatherDisplay:10.37,2013-04-15 22:13:00,
2013-04-15 18:18:00,52.5,33.4,29.99,SSE,157,2.0,4.6,48,0.00,CLR,SCT,0.00,WeatherDisplay:10.37,2013-04-15 22:18:00,
2013-04-15 18:23:00,52.3,33.2,29.99,SSE,154,2.5,5.0,48,0.00,CLR,SCT,0.00,WeatherDisplay:10.37,2013-04-15 22:23:00,
2013-04-15 18:28:00,52.0,32.9,30.00,SSE,148,0.9,3.5,48,0.00,CLR,SCT,0.00,WeatherDisplay:10.37,2013-04-15 22:28:00,
2013-04-15 18:33:00,51.9,32.8,30.00,SSE,158,2.6,4.6,48,0.00,CLR,SCT,0.00,WeatherDisplay:10.37,2013-04-15 22:33:00,
2013-04-15 18:38:00,51.8,33.2,30.00,SSE,155,0.7,2.3,49,0.00,CLR,SCT,0.00,WeatherDisplay:10.37,2013-04-15 22:38:00,
2013-04-15 18:43:00,51.8,33.2,30.00,SE,145,2.1,3.5,49,0.00,CLR,SCT,0.00,WeatherDisplay:10.37,2013-04-15 22:43:00,
2013-04-15 18:48:00,51.7,32.6,30.00,SSE,159,2.2,4.6,48,0.00,CLR,SCT,0.00,WeatherDisplay:10.37,2013-04-15 22:48:00,
2013-04-15 18:53:00,51.5,33.0,30.00,SE,145,1.6,3.5,49,0.00,CLR,SCT,0.00,WeatherDisplay:10.37,2013-04-15 22:53:00,
2013-04-15 18:58:00,51.4,32.9,30.00,SSE,152,1.2,3.5,49,0.00,CLR,SCT,0.00,WeatherDisplay:10.37,2013-04-15 22:58:00,
2013-04-15 19:03:00,51.1,32.6,29.99,SE,138,2.1,3.5,49,0.00,CLR,SCT,0.00,WeatherDisplay:10.37,2013-04-15 23:03:00,
2013-04-15 19:08:00,50.8,33.3,29.99,SE,138,3.3,4.6,51,0.00,CLR,SCT,0.00,WeatherDisplay:10.37,2013-04-15 23:08:00,
2013-04-15 19:13:00,50.5,32.5,29.99,SE,130,2.9,4.6,50,0.00,CLR,SCT,0.00,WeatherDisplay:10.37,2013-04-15 23:13:00,
2013-04-15 19:18:00,50.1,32.2,29.99,SE,128,2.8,4.6,50,0.00,CLR,SCT,0.00,WeatherDisplay:10.37,2013-04-15 23:18:00,
2013-04-15 19:23:00,49.7,32.8,29.99,SE,144,2.2,4.0,52,0.00,CLR,SCT,0.00,WeatherDisplay:10.37,2013-04-15 23:23:00,
2013-04-15 19:28:00,49.4,32.0,29.99,SSE,160,4.3,6.0,51,0.00,CLR,SCT,0.00,WeatherDisplay:10.37,2013-04-15 23:28:00,
2013-04-15 19:33:00,49.2,32.3,30.00,SSE,148,2.6,4.6,52,0.00,CLR,SCT,0.00,WeatherDisplay:10.37,2013-04-15 23:33:00,
2013-04-15 19:38:00,49.0,32.6,30.00,SE,142,1.6,2.3,53,0.00,CLR,SCT,0.00,WeatherDisplay:10.37,2013-04-15 23:38:00,
2013-04-15 19:43:00,48.7,32.8,30.00,SSE,148,2.3,3.0,54,0.00,CLR,SCT,0.00,WeatherDisplay:10.37,2013-04-15 23:43:00,
2013-04-15 19:48:00,48.4,32.5,30.00,ESE,123,1.5,4.0,54,0.00,CLR,SCT,0.00,WeatherDisplay:10.37,2013-04-15 23:48:00,
2013-04-15 19:53:00,48.2,32.8,30.01,SE,146,1.4,3.5,55,0.00,CLR,SCT,0.00,WeatherDisplay:10.37,2013-04-15 23:53:00,
2013-04-15 19:58:00,48.1,32.2,30.01,SSE,153,1.1,3.5,54,0.00,CLR,SCT,0.00,WeatherDisplay:10.37,2013-04-15 23:58:00,
2013-04-15 20:03:00,47.9,32.5,30.01,SSE,153,1.8,2.3,55,0.00,CLR,SCT,0.00,WeatherDisplay:10.37,2013-04-16 00:03:00,
2013-04-15 20:08:00,47.6,32.2,30.01,SSE,153,1.3,3.5,55,0.00,CLR,SCT,0.00,WeatherDisplay:10.37,2013-04-16 00:08:00,
2013-04-15 20:13:00,47.4,31.6,30.01,SSE,153,2.2,2.3,54,0.00,CLR,SCT,0.00,WeatherDisplay:10.37,2013-04-16 00:13:00,
2013-04-15 20:18:00,47.3,31.9,30.02,SSE,153,1.8,3.5,55,0.00,CLR,SCT,0.00,WeatherDisplay:10.37,2013-04-16 00:18:00,
2013-04-15 20:23:00,47.1,32.2,30.02,SSE,153,1.9,4.6,56,0.00,CLR,SCT,0.00,WeatherDisplay:10.37,2013-04-16 00:23:00,
2013-04-15 20:28:00,46.8,32.4,30.01,SE,142,1.5,3.0,57,0.00,CLR,SCT,0.00,WeatherDisplay:10.37,2013-04-16 00:28:00,
2013-04-15 20:33:00,46.4,32.0,30.01,SE,135,1.8,3.5,57,0.00,CLR,SCT,0.00,WeatherDisplay:10.37,2013-04-16 00:33:00,
2013-04-15 20:38:00,46.2,31.8,30.02,SE,132,1.7,3.5,57,0.00,CLR,SCT,0.00,WeatherDisplay:10.37,2013-04-16 00:38:00,
2013-04-15 20:43:00,46.1,32.1,30.02,SE,137,1.2,3.5,58,0.00,CLR,SCT,0.00,WeatherDisplay:10.37,2013-04-16 00:43:00,
2013-04-15 20:48:00,46.0,32.0,30.02,SSE,159,1.5,2.3,58,0.00,CLR,SCT,0.00,WeatherDisplay:10.37,2013-04-16 00:48:00,
2013-04-15 20:53:00,45.9,32.4,30.02,SSE,147,1.3,2.3,59,0.00,CLR,SCT,0.00,WeatherDisplay:10.37,2013-04-16 00:53:00,
2013-04-15 20:58:00,45.7,32.6,30.02,ESE,122,1.7,3.5,60,0.00,CLR,SCT,0.00,WeatherDisplay:10.37,2013-04-16 00:58:00,
2013-04-15 21:03:00,45.4,32.3,30.02,ESE,123,2.1,4.6,60,0.00,CLR,SCT,0.00,WeatherDisplay:10.37,2013-04-16 01:03:00,
2013-04-15 21:08:00,45.1,32.4,30.02,SE,130,2.4,4.6,61,0.00,CLR,SCT,0.00,WeatherDisplay:10.37,2013-04-16 01:08:00,
2013-04-15 21:13:00,44.9,32.7,30.03,SE,127,3.2,5.0,62,0.00,CLR,SCT,0.00,WeatherDisplay:10.37,2013-04-16 01:13:00,
2013-04-15 21:18:00,44.7,32.9,30.03,ESE,123,2.7,5.0,63,0.00,CLR,SCT,0.00,WeatherDisplay:10.37,2013-04-16 01:18:00,
2013-04-15 21:23:00,44.6,32.4,30.03,SE,135,2.3,4.6,62,0.00,CLR,SCT,0.00,WeatherDisplay:10.37,2013-04-16 01:23:00,
2013-04-15 21:28:00,44.5,32.3,30.03,SE,146,3.2,5.8,62,0.00,CLR,SCT,0.00,WeatherDisplay:10.37,2013-04-16 01:28:00,
2013-04-15 21:33:00,44.3,32.5,30.04,SE,138,3.8,4.6,63,0.00,CLR,SCT,0.00,WeatherDisplay:10.37,2013-04-16 01:33:00,
2013-04-15 21:38:00,44.1,32.7,30.04,SE,137,2.9,4.0,64,0.00,CLR,SCT,0.00,WeatherDisplay:10.37,2013-04-16 01:38:00,
2013-04-15 21:43:00,43.8,32.4,30.04,SE,143,1.7,3.5,64,0.00,CLR,SCT,0.00,WeatherDisplay:10.37,2013-04-16 01:43:00,
2013-04-15 21:48:00,43.7,32.3,30.04,SSE,150,2.0,3.5,64,0.00,CLR,SCT,0.00,WeatherDisplay:10.37,2013-04-16 01:48:00,
2013-04-15 21:53:00,43.6,32.2,30.04,SE,144,2.5,3.5,64,0.00,CLR,SCT,0.00,WeatherDisplay:10.37,2013-04-16 01:53:00,
2013-04-15 21:58:00,43.3,32.3,30.04,SE,128,2.4,3.5,65,0.00,CLR,SCT,0.00,WeatherDisplay:10.37,2013-04-16 01:58:00,
2013-04-15 22:03:00,43.2,32.6,30.04,SE,128,1.6,2.3,66,0.00,CLR,SCT,0.00,WeatherDisplay:10.37,2013-04-16 02:03:00,
2013-04-15 22:08:00,42.9,32.3,30.04,SE,137,2.2,3.5,66,0.00,CLR,SCT,0.00,WeatherDisplay:10.37,2013-04-16 02:08:00,
2013-04-15 22:13:00,42.8,32.6,30.04,ESE,123,1.5,3.5,67,0.00,CLR,SCT,0.00,WeatherDisplay:10.37,2013-04-16 02:13:00,
2013-04-15 22:18:00,42.6,32.4,30.05,ESE,123,1.3,2.3,67,0.00,CLR,SCT,0.00,WeatherDisplay:10.37,2013-04-16 02:18:00,
2013-04-15 22:23:00,42.3,32.5,30.04,ESE,123,1.3,3.5,68,0.00,CLR,SCT,0.00,WeatherDisplay:10.37,2013-04-16 02:23:00,
2013-04-15 22:28:00,42.3,32.5,30.04,ESE,123,1.5,2.3,68,0.00,CLR,SCT,0.00,WeatherDisplay:10.37,2013-04-16 02:28:00,
2013-04-15 22:33:00,42.0,32.6,30.04,SE,133,1.6,3.5,69,0.00,CLR,SCT,0.00,WeatherDisplay:10.37,2013-04-16 02:33:00,
2013-04-15 22:38:00,41.9,32.5,30.04,SE,133,1.5,3.5,69,0.00,CLR,SCT,0.00,WeatherDisplay:10.37,2013-04-16 02:38:00,
2013-04-15 22:43:00,41.9,32.5,30.04,SE,133,1.6,2.3,69,0.00,CLR,SCT,0.00,WeatherDisplay:10.37,2013-04-16 02:43:00,
2013-04-15 22:48:00,41.7,32.6,30.04,SE,133,1.7,3.5,70,0.00,CLR,SCT,0.00,WeatherDisplay:10.37,2013-04-16 02:48:00,
2013-04-15 22:53:00,41.5,32.8,30.04,SE,133,1.5,2.3,71,0.00,CLR,SCT,0.00,WeatherDisplay:10.37,2013-04-16 02:53:00,
2013-04-15 22:58:00,41.3,33.0,30.04,SE,132,2.2,4.6,72,0.00,CLR,SCT,0.00,WeatherDisplay:10.37,2013-04-16 02:58:00,
2013-04-15 23:03:00,41.2,32.9,30.05,SE,132,1.6,3.5,72,0.00,CLR,SCT,0.00,WeatherDisplay:10.37,2013-04-16 03:03:00,
2013-04-15 23:08:00,41.3,32.6,30.05,SE,132,1.7,3.5,71,0.00,CLR,SCT,0.00,WeatherDisplay:10.37,2013-04-16 03:08:00,
2013-04-15 23:13:00,41.3,32.6,30.04,SE,132,2.0,3.5,71,0.00,CLR,SCT,0.00,WeatherDisplay:10.37,2013-04-16 03:13:00,
2013-04-15 23:18:00,41.2,32.9,30.04,SE,132,1.6,2.3,72,0.00,CLR,SCT,0.00,WeatherDisplay:10.37,2013-04-16 03:18:00,
2013-04-15 23:23:00,41.1,32.8,30.05,SE,132,1.1,2.3,72,0.00,CLR,SCT,0.00,WeatherDisplay:10.37,2013-04-16 03:23:00,
2013-04-15 23:28:00,41.2,32.5,30.05,SE,132,1.3,3.5,71,0.00,CLR,SCT,0.00,WeatherDisplay:10.37,2013-04-16 03:28:00,
2013-04-15 23:33:00,41.1,32.8,30.05,SE,141,1.6,2.3,72,0.00,CLR,SCT,0.00,WeatherDisplay:10.37,2013-04-16 03:33:00,
2013-04-15 23:38:00,40.9,32.9,30.05,SE,141,1.9,3.5,73,0.00,CLR,SCT,0.00,WeatherDisplay:10.37,2013-04-16 03:38:00,
2013-04-15 23:43:00,40.9,32.6,30.05,SE,140,1.9,2.3,72,0.00,CLR,SCT,0.00,WeatherDisplay:10.37,2013-04-16 03:43:00,
2013-04-15 23:48:00,40.8,32.8,30.05,SE,140,1.0,2.3,73,0.00,CLR,SCT,0.00,WeatherDisplay:10.37,2013-04-16 03:48:00,
2013-04-15 23:53:00,40.8,32.8,30.05,SE,140,0.5,2.0,73,0.00,CLR,SCT,0.00,WeatherDisplay:10.37,2013-04-16 03:53:00,
2013-04-15 23:58:00,40.6,32.6,30.05,SE,132,1.2,3.0,73,0.00,CLR,SCT,0.00,WeatherDisplay:10.37,2013-04-16 03:58:00,